Regional Weather Roundup
Issued by NWS Grand Forks, ND

Home | Current Version | Previous Version | Graphics & Text | Print | Product List | Glossary On
Versions: 1 2 3 4 5 6 7 8 9 10 11 12 13 14 15 16 17 18 19 20 21 22 23 24 25 26 27 28 29 30 31 32 33 34 35 36 37 38 39 40 41 42 43 44 45 46 47 48 49 50
076
ASUS43 KFGF 181110
RWRFGF
PRAIRIE TO PINES  WEATHER ROUNDUP
NATIONAL WEATHER SERVICE EASTERN NORTH DAKOTA/GRAND FORKS ND
500 AM CST MON DEC 18 2017

 **SATELLITE DATA USED TO AUGMENT SKY COVER AT AUTOMATED STATIONS**
 *****  WEATHER ACROSS EASTERN NORTH DAKOTA  *****

CITY           SKY/WX    TMP DP  RH WIND       PRES   REMARKS
GRAND FORKS    FAIR      25  22  88 S12       29.60F WCI  14
GRAND FRKS AFB FAIR      30  24  77 SW10      29.59F WCI  21
GRAND FRKS NWS   N/A     27 N/A N/A S6          N/A  WCI  20
DEVILS LAKE    MOCLDY    30  24  78 SW10      29.58F WCI  21
FARGO          FAIR      28  26  92 S10       29.67F WCI  19
WAHPETON ARPT  FAIR      28  27  93 S6        29.70F WCI  22
$$

 ***** WEATHER ACROSS CENTRAL AND WESTERN NORTH DAKOTA  *****

CITY           SKY/WX    TMP DP  RH WIND       PRES   REMARKS
BISMARCK       FAIR      31  23  72 W6        29.67F
MINOT          CLOUDY    38  23  55 SW14      29.54F
JAMESTOWN      FAIR      30  24  78 SW10      29.62F WCI  21
MINOT AFB      FAIR      36  24  61 W13       29.53F
GARRISON         N/A     33  25  72 SW8       29.58F
WILLISTON      FAIR      35  23  61 SW9       29.58F
DICKINSON      FAIR      30  21  69 SW15      29.62F WCI  19
HETTINGER      FAIR      28  20  71 W12       29.70F WCI  18
$$

 *****  OTHER AIRPORT OBSERVATIONS IN OUR AREA  *****

CITY           SKY/WX    TMP DP  RH WIND       PRES   REMARKS
WALHALLA       FAIR      34  27  75 W20G30    29.50S WCI  22
GRAFTON AIRPOR NOT AVBL
VALLEY CITY AR NOT AVBL
CANDO          CLOUDY    28  28 100 W13       29.57F WCI  18
CAVALIER APRT  FAIR      34  25  69 SW9       29.52F
GWINNER          N/A     30  28  93 SW13      29.68F WCI  20
SHEYENNE NWR     N/A     29  29 100 W6        29.95  WCI  23
ROLLA          PTSUNNY   30  27  86 SW14      29.52F WCI  20
 ***** THE ABOVE OBSERVATIONS ARE NON NWS ARE NOT QUALITY
       CONTROLLED AND MAY MIS-REPORT RAIN FOR SNOW...
$$

  *****  WEATHER ACROSS NORTHERN MINNESOTA  *****

CITY           SKY/WX    TMP DP  RH WIND       PRES   REMARKS
FLAG ISLAND    FAIR      25  23  93 S8        29.52F WCI  16
WARROAD        FAIR      30  27  86 SW14G20   29.55F WCI  20
ROSEAU         FAIR      30  27  86 SW13      29.55F WCI  20
HALLOCK        FAIR      27  25  93 S14       29.54F WCI  15
THF RVR FALLS  FAIR      29  27  92 SW16      29.61S WCI  17
BAUDETTE       FAIR      30  27  88 S14       29.56F WCI  19
WASKISH        FAIR      28  27  93 S9G17     29.59F WCI  20
CROOKSTON      FAIR      27  27 100 SW12      29.63F WCI  16
STEPHEN NDAWN    N/A     28  25  86 S15         N/A  WCI  17
GREENBUSH NDAW   N/A     28  25  86 S12         N/A  WCI  18
$$
  *****  WEATHER ACROSS CENTRAL AND WEST MINNESOTA  *****

CITY           SKY/WX    TMP DP  RH WIND       PRES   REMARKS
FOSSTON        FAIR      28  27  93 S14       29.63F WCI  17
BEMIDJI        FAIR      28  27  96 S8        29.62F WCI  20
PARK RAPIDS    MOCLDY    27  24  89 S7        29.66F FOG     WCI  19
ELBOW LAKE     FAIR      28  27  94 S10       29.72F WCI  19
WADENA         CLOUDY    28  28 100 SW7       29.69F WCI  21
DETROIT LAKES  FAIR      32  30  93 SW9       29.67F WCI  24
MOORHEAD       FAIR      30  27  86 CALM      29.68F
FERGUS FALLS   FAIR      28  28 100 S8        29.73F WCI  20
MORRIS MN      FAIR      28  27  93 S7        29.72F WCI  21
STAPLES        CLOUDY    25  25 100 S9        29.70F FOG     WCI  15
$$
  *****  WEATHER ELSEWHERE ACROSS MINNESOTA  *****

CITY           SKY/WX    TMP DP  RH WIND       PRES   REMARKS
DULUTH         CLOUDY    22  21  96 SW9       29.73F WCI  12
INTRNTL FALLS  FAIR      26  23  88 S7        29.60F FOG     WCI  18
ELY            CLOUDY    27  27 100 SW8       29.68F WCI  18
CLOQUET        CLOUDY    23  19  86 S7        29.74F FOG     WCI  15
WHEATON        FAIR      30  27  86 S8        29.73F WCI  23
BRAINERD       FAIR      27  23  85 S8        29.72F FOG     WCI  19
HIBBING        CLOUDY    24  21  88 S5        29.69F WCI  18
ALEXANDRIA     FAIR      31  27  85 S12       29.72F WCI  22
SAINT CLOUD    FAIR      25  24  96 S6        29.78F WCI  18
MINNEAPOLIS    CLOUDY    26  25  96 SE5       29.84F FOG     WCI  20
$$

  *****  WEATHER ACROSS SOUTH DAKOTA  *****

CITY           SKY/WX    TMP DP  RH WIND       PRES   REMARKS
SIOUX FALLS    FAIR      28  25  88 SW6       29.81F WCI  22
BROOKINGS      FAIR      27  24  89 S7        29.78F WCI  19
WATERTOWN      FAIR      28  27  96 SW12      29.73F WCI  18
HURON          FAIR      25  23  92 MISG      29.77F
SISSETON         N/A     34  29  82 SW14      29.69F WCI  25
ABERDEEN       FAIR      20  20 100 SW6       29.73F WCI  12
MITCHELL       FAIR      29  26  89 SW9       29.81F WCI  20
PIERRE         FAIR      28  23  81 SW9       29.79S WCI  19
MOBRIDGE       FAIR      31  23  72 CALM      29.71F
RAPID CITY     FAIR      27  17  66 SW6       29.79F WCI  20
$$

  *****  SOME WEATHER IN NEARBY STATES *****

CITY           SKY/WX    TMP DP  RH WIND       PRES   REMARKS
GLASGOW MT     LGT RAIN  33  26  75 SW3       29.60F
GREAT FALLS MT FAIR      42  26  53 SW33G45   29.64F
CHEYENNE WY    FAIR      35  15  44 SW14G30   29.92F
SCOTTSBLUFF NE FAIR      18  11  74 E5        29.92S WCI  11
OMAHA NE       FAIR      25  21  85 SE10      29.96S FOG     WCI  15
DES MOINES IA  FOG       27  26  96 W6        29.97S VSB 1/8 WCI  20
DAVENPORT IA   MIX PCPN  37  36  96 W12       29.97R FOG
CHICAGO IL     DRIZZLE   42  40  92 W9        29.91F FOG
EAU CLAIRE WI  CLOUDY    27  26  96 SW5       29.86F FOG     WCI  22
LA CROSSE WI   CLOUDY    31  29  92 VRB3      29.90F FOG
$$

  *****  SOME NATIONAL WEATHER *****

CITY           SKY/WX    TMP DP  RH WIND       PRES   REMARKS
LA GUARDIA NY  CLOUDY    36  30  79 NE9       30.14F
RALEIGH NC     FAIR      38  37  97 CALM      30.16S
ATLANTA GA     FOG       47  47 100 CALM      30.17R VSB 1/4
NEW ORLEANS LA TSTM      65  65 100 N3        30.13R
OKLAHOMA CITY  FOG       38  38 100 SW8       30.12F VSB 1/8
ALBUQUERQUE NM MOCLDY    33  26  75 N12       30.09F WCI  24
SALT LAKE CITY FAIR      29  22  75 SE7       30.27F WCI  22
LOS ANGELES CA FAIR      53  24  32 NE3       30.09S
BOISE ID       CLOUDY    34  26  72 NW5       30.20F
SEATTLE WA     CLOUDY    49  46  90 S18       29.98R
$$

*** WEATHER ACROSS MANITOBA...SASKATCHEWAN AND ONTARIO ***
                ***ONTARIO***

CITY           SKY/WX    TMP DP  RH WIND       PRES   REMARKS
GERALDTON      CLOUDY    21  21 100 SW8       29.66F WCI  12
THUNDER BAY    CLOUDY    21  19  93 SW7       29.73F WCI  13
SIOUX LOOKOUT  CLOUDY    25  21  86 S13G20    29.50F WCI  13
TORONTO        CLOUDY    23  18  80 W3        29.97S
BIG TROUT LK   FLURRIES  25  21  86 S15G23    29.26F WCI  12
PICKLE LAKE    CLOUDY    23  21  93 S17G24    29.43  WCI   9
DRYDEN         MOCLDY    25  23  93 SW15G26   29.49F WCI  12
KENORA         FLURRIES  25  23  93 SW15G21   29.49F WCI  12
$$
                *** MANITOBA***

CITY           SKY/WX    TMP DP  RH WIND       PRES   REMARKS
BRANDON        MOCLDY    30  25  80 W16       29.48F WCI  19
DAUPHIN        CLEAR     30  25  80 SW14G21   29.39F WCI  20
ISLAND LAKE    NOT AVBL
PILOT MOUND      N/A     30  27  86 SW7         N/A  WCI  23
THE PAS        CLOUDY    32  27  80 W20G26    29.20R WCI  20
THOMPSON       NOT AVBL
WINNIPEG       MOCLDY    28  23  80 SW12      29.48S WCI  18
LYNN LAKE      LGT SNOW  18  16  93 NW13G20   29.06R WCI   4
CHURCHILL      LGT SNOW  10   9  92 E18       29.13F DRFTSNOWWCI  -8
GILLAM         FLURRIES  23  21  93 S8        29.02F WCI  14
$$
                ***SASKATCHEWAN***

CITY           SKY/WX    TMP DP  RH WIND       PRES   REMARKS
ESTEVAN        CLOUDY    30  25  80 SW8       29.52F WCI  23
KINDERSLEY     CLOUDY    32  19  59 NW15G24   29.51S WCI  22
LLOYDMINSTER   PTCLDY    25  18  74 W16       29.46S WCI  12
PRINCE ALBERT  CLEAR     23  18  80 W10       29.41R WCI  12
REGINA         MOCLDY    27  23  86 W9        29.50S WCI  17
YORKTON        PTCLDY    27  21  80 SW12      29.41F WCI  16
N. BATTLEFORD  PTCLDY    27  16  63 W10       29.48S WCI  17
LA RONGE       MOCLDY    27  23  86 W8        29.30R WCI  18
SASKATOON      PTCLDY    21  18  86 W10       29.48F WCI  10
SWIFT CURRENT  CLOUDY    32  25  74 W7        29.50F
$$
NOTE: THESE ARE AUTOMATED STATIONS WITH LIMITED QUALITY CONTROL
      "FAIR" INDICATES FEW OR NO CLOUDS BELOW 12,000 FEET WITH NO
      SIGNIFICANT WEATHER AND/OR OBSTRUCTIONS TO VISIBILITY.
      SKY/WX - SKY CONDITION AND SIGNIFICANT WEATHER.
      TMP - AIR TEMPERATURE.    DP   - DEWPOINT TEMPERATURE.
      RH  - RELATIVE HUMIDITY.  PRES - PRESSURE.
      HX  - HEAT INDEX.         WCI  - WIND CHILL INDEX.
$




USA.gov is the U.S. government's official web portal to all federal, state and local government web resources and services.